AirNav   Everest Fuels
 
 1326 users online  

36PA Episcopal Hospital Heliport
Philadelphia, Pennsylvania, USA

GOING TO PHILADELPHIA?


FAA INFORMATION EFFECTIVE 18 JUNE 2020

Location

FAA Identifier: 36PA
Lat/Long: 39-59-24.6700N 075-07-49.2900W
39-59.411167N 075-07.821500W
39.9901861,-75.1303583
(estimated)
Elevation: 74 ft. / 23 m (estimated)
Variation: 12W (1995)
Time zone: UTC -4 (UTC -5 during Standard Time)
Zip code: 19133

Heliport Operations

Heliport use: Private use, MEDICAL USE.
Activation date: 08/1998
Control tower: no
ARTCC: NEW YORK CENTER
FSS: WILLIAMSPORT FLIGHT SERVICE STATION
Attendance: CONTINUOUS
Wind indicator: lighted
Segmented circle: no
Lights: FOR PERIMETER LGTS CALL AMGR.

Heliport Communications

WX ASOS at PNE (8 nm NE): 121.15 (215-677-0146)
WX ASOS at PHL (9 nm SW): PHONE 215-492-9617
WX AWOS-3 at LOM (11 nm NW): 118.925 (215-646-1068)
WX ASOS at VAY (13 nm E): 119.325 (609-267-1176)

Nearby radio navigation aids

VOR radial/distance  VOR name  Freq  Var
ARDr223/18.8YARDLEY VOR/DME108.2010W
OODr031/22.7WOODSTOWN VORTAC112.8010W
PTWr134/24.1POTTSTOWN VORTAC116.5009W
GXUr279/24.6MC GUIRE VORTAC110.6012W
MXEr089/25.2MODENA VORTAC113.2009W
VCNr355/28.2CEDAR LAKE VOR/DME115.2010W
DQOr060/28.9DUPONT VORTAC114.0010W
RBVr256/31.8ROBBINSVILLE VORTAC113.8010W
CYNr298/33.8COYLE VORTAC113.4010W
SBJr217/39.8SOLBERG VOR/DME112.9010W

 
NDB name  Hdg/Dist  Freq  Var  ID
AMBLER151/10.827512WING .. -. --.
RAINBOW011/34.336311WRNB .-. -. -...
LAKEHURST276/36.739611WNEL -. . .-..

Heliport Services

Runway Information

Helipad H1

Dimensions: 45 x 45 ft. / 14 x 14 m
Surface: mats
Runway edge lights: PERI
Runway edge markings: WHITE BORDER PAINT; WHITE HOSPITAL CROSS WITH RED 'H' IN CENTER.
Operational restrictions: INGRESS 060 & 160; EGRESS 240 & 340.
Latitude: 39-59.411167N
Longitude: 075-07.821500W
Elevation: 74.0 ft.
Traffic pattern: leftleft

Heliport Ownership and Management from official FAA records

Ownership: Privately-owned
Owner: EPISCOPAL HOSPITAL
100 EAST LEHIGH AVENUE
PHILADELPHIA, PA 19125
Phone (215) 707-7000
Manager: MATTHEW MCCLOSKEY
100 EAST LEHIGH AVENUE
PHILADELPHIA, PA 19125
Phone (215) 707-1067

Additional Remarks

FOR CD CTC PHILADELPHIA APCH AT 800-354-9884.

Instrument Procedures

There are no published instrument procedures at 36PA.

Some nearby airports with instrument procedures:

KPNE - Northeast Philadelphia Airport (8 nm NE)
KPHL - Philadelphia International Airport (9 nm SW)
KLOM - Wings Field Airport (11 nm NW)
KVAY - South Jersey Regional Airport (13 nm E)
19N - Camden County Airport (15 nm SE)
N14 - Flying W Airport (15 nm E)
17N - Cross Keys Airport (18 nm S)
N10 - Perkiomen Valley Airport (19 nm NW)
7N7 - Spitfire Aerodrome (20 nm SW)
 
Loc | Ops | Rwys | IFR | FBO | Links
Com | Nav | Svcs | Stats | Notes
Area around 36PA (Episcopal Hospital Heliport)
 
Road maps at: MapQuest Bing Google
 
Aerial photo
No photo
 
Sectional chart

 
Airport distance calculator
Flying to Episcopal Hospital Heliport? Find the distance to fly.

From to 36PA

Sunrise and sunset
Times for 02-Jul-2020
 Local
(UTC-4)
 Zulu
(UTC)
Morning civil twilight05:0509:05
Sunrise05:3709:37
Sunset20:3200:32
Evening civil twilight21:0501:05

Current date and time
Zulu (UTC)  02-Jul-2020 18:23:10
Local (UTC-4)  02-Jul-2020 14:23:10
 
METAR
KPNE 
8nm NE 
021754Z 01010KT 10SM CLR 34/17 A2985 RMK AO2 SLP106 T03440167 10344 20250 58013
KPHL 
9nm SW 
021754Z 33008KT 10SM SCT070 SCT130 31/16 A2984 RMK AO2 SLP104 T03110156 10328 20244 58013
KLOM 
11nm NW 
021755Z AUTO 30008KT 270V350 10SM SCT060 31/19 A2986 RMK AO2 T03110190 10314 20226
KVAY 
14nm E 
ASOS 119.325 609-267-1176
021754Z AUTO 31007KT 270V340 10SM CLR 32/14 A2983 RMK AO2 SLP101 T03220144 10322 20228 56013
TAF
KPNE 
8nm NE 
021720Z 0218/0318 36011KT P6SM FEW060 FM022000 33007KT P6SM VCSH SCT070 FM030100 30005KT P6SM SCT200 FM031500 32006KT P6SM BKN100
KPHL 
9nm SW 
021720Z 0218/0324 34009KT P6SM FEW060 FM022000 33007KT P6SM VCSH FEW060 FM030200 32006KT P6SM SCT150 FM032000 31007KT P6SM BKN100
NOTAMs
Click for the latest NOTAMs
NOTAMs are issued by the DoD/FAA and will open in a separate window not controlled by AirNav.

 

 
 

Would you like to see your business listed on this page?

 If your business provides an interesting product or service to pilots, flight crews, aircraft, or users of the Episcopal Hospital Heliport, you should consider listing it here.  To start the listing process, click on the button below
 
Add a business
 

Other Pages about Episcopal Hospital Heliport

Update a link
 
Copyright © AirNav, LLC. All rights reserved. Privacy Policy  Contact